Regional Weather Roundup
Issued by NWS

Home | Current Version | Previous Version | Graphics & Text | Print | Product List | Glossary On
Versions: 1 2 3 4 5 6 7 8 9 10 11 12 13 14 15 16 17 18 19 20 21 22 23 24 25 26 27 28 29 30 31 32 33 34 35 36 37 38 39 40 41 42 43 44 45 46 47 48 49 50
000
ASUS43 KDMX 310803
RWRIA

WEATHER ROUNDUP FOR IOWA
NATIONAL WEATHER SERVICE DES MOINES IA
300 AM CDT SUN JUL 31 2016

NOTE: "FAIR" INDICATES FEW OR NO CLOUDS BELOW 12,000 FEET WITH NO
SIGNIFICANT WEATHER AND/OR OBSTRUCTIONS TO VISIBILITY.

* - THESE STATIONS ARE NOT NWS STATIONS...THUS NOT UNDER NWS
QUALITY CONTROL.  THEY ALSO DO NOT REPORT WEATHER SUCH
AS PRECIPITATION OR FOG.

IAZ001>003-012>014-020>022-031>034-043>046-310900-
   NORTHWEST IOWA

CITY           SKY/WX    TMP DP  RH WIND       PRES   REMARKS
CARROLL *      CLOUDY    63  61  94 CALM      29.98S
CHEROKEE *     CLEAR     64  64 100 S3        29.96F
DENISON *      CLOUDY    64  63  94 E5        29.95F
LE MARS *      CLOUDY    66  63  88 SE9       29.95F
SHELDON *      CLEAR     63  61  94 SE3       29.95F
SIOUX CITY     MOCLDY    68  63  84 SE6       29.93F
SPENCER        PTCLDY    63  61  93 SE6       29.98F
STORM LAKE *   CLOUDY    63  63 100 SE5       29.98F
$$

IAZ055>058-069>071-079>083-090>094-310900-
   SOUTHWEST IOWA

CITY           SKY/WX    TMP DP  RH WIND       PRES   REMARKS
ATLANTIC *     CLOUDY    68  64  88 NE6       29.97F
CLARINDA *       N/A     64  64 100 MISG      29.98F
COUNCIL BLFS *   N/A     68  64  88 SE6       29.95F
CRESTON *      MOCLDY    66  63  88 SE5       30.01S
HARLAN  *      PTCLDY    66  64  94 CALM      30.00S
LAMONI         CLEAR     68  64  87 SE3       29.99F
RED OAK *      PTCLDY    68  63  83 CALM      29.96F
SHENANDOAH *   MOCLDY    68  66  94 CALM      29.95F
$$

IAZ047>049-059>061-072>074-084-310900-
   CENTRAL IOWA

CITY           SKY/WX    TMP DP  RH WIND       PRES   REMARKS
AMES           CLOUDY    62  62 100 CALM      29.99F FOG
ANKENY *         N/A    N/A N/A N/A MISG        N/A
BOONE *        PTCLDY    64  63  94 SE5       29.99S
CHARITON *       N/A    N/A N/A N/A MISG        N/A
DES MOINES     CLOUDY    69  65  86 S6        29.99S
GRINNELL*      CLEAR     64  63  96 SE3       30.01S FOG
KNOXVILLE *    CLEAR     68  64  88 S5        29.99R
MARSHALLTOWN   CLEAR     64  64 100 E5        30.00R FOG
NEWTON *       CLEAR     64  64 100 CALM      30.00S
PELLA *        CLEAR     64  62  96 CALM      30.01S FOG
PERRY *          N/A     64  63  98 SE5       29.99F
$$

IAZ004>006-015-016-023>025-035-036-310900-
   NORTH CENTRAL IOWA

CITY           SKY/WX    TMP DP  RH WIND       PRES   REMARKS
ALGONA *       CLEAR     66  64  94 SE6       30.00S
ESTHERVILLE    CLEAR     61  61 100 S5        29.99S FOG
FORT DODGE *   CLOUDY    66  63  88 SE3       30.00S
MASON CITY     PTCLDY    67  65  93 SE5       30.02S
FOREST CITY *    N/A     64  64 100 SE3       30.01S
IOWA FALLS *     N/A     65  64  94 E5        30.02S
$$

IAZ007>011-017>019-026>030-037>042-050>054-066-310900-
   NORTHEAST IOWA

CITY           SKY/WX    TMP DP  RH WIND       PRES   REMARKS
CEDAR RAPIDS   CLEAR     66  66 100 E6        29.99F
CHARLES CITY * PTCLDY    66  66 100 SE6       30.03R
CLINTON *      CLOUDY    66  64  93 E5        30.02F
DECORAH *      CLEAR     64  63  94 SE6       30.02S
DUBUQUE          N/A    N/A N/A N/A MISG      30.04S
MONTICELLO *   CLEAR     66  63  88 E8        30.01F
OELWEIN *      CLOUDY    66  64  94 SE7       30.03R
WATERLOO       CLEAR     64  62  93 E3        30.00R
$$

IAZ064-065-067-068-078-310900-
   EAST CENTRAL IOWA

CITY           SKY/WX    TMP DP  RH WIND       PRES   REMARKS
DAVENPORT      CLOUDY    67  64  90 E6        30.01F
IOWA CITY      CLEAR     68  66  93 E5        30.00F
MT. PLEASANT * CLEAR     66  66 100 CALM      29.99F FOG
MUSCATINE *    PTCLDY    66  63  88 CALM      30.00S
QUAD CITIES    PTCLDY    68  64  87 E5        30.00F
$$

IAZ062-063-075>077-085>089-095>099-310900-
   SOUTHEAST IOWA

CITY           SKY/WX    TMP DP  RH WIND       PRES   REMARKS
BURLINGTON     CLEAR     66  66 100 CALM      29.98F
FAIRFIELD *    CLEAR     64  63  94 CALM      29.99S
KEOKUK *       CLEAR     66  66 100 CALM      29.97F
CENTERVILLE *    N/A     61  61 100 CALM      30.01S
OTTUMWA        CLEAR     63  62  97 CALM      29.99F
WASHINGTON *   CLEAR     64  64 100 SE3       30.00F FOG
$$

ABBREVIATIONS USED IN REMARKS
   TC - TEMPERATURES IN CELSIUS
  WCI - WIND CHILL INDEX
   HX - HEAT INDEX
  VSB - VISIBILITY
$$




USA.gov is the U.S. government's official web portal to all federal, state and local government web resources and services.